weather.gov     
National Weather Service

Regional Weather Roundup
NWS Homepage
This page is being discontinued on March 12, 2014.
The same data is available at this site. Please update your bookmarks.
Thank you, and we apologize for the inconvenience.
Please send an email to SR-SRH.Webmaster@noaa.gov with any concerns.


Current Version
Previous Version:    01  02  03  04  05  06  07  08  09  10  11  12  13  14  15  16  17  18  19  20  21  22  23  24  25  26  
[Printable]
648
ASUS42 KTBW 200010
RWRFL
FLORIDA REGIONAL WEATHER ROUNDUP
NATIONAL WEATHER SERVICE TAMPA BAY RUSKIN FL
800 PM EDT SAT APR 19 2014

NOTE: "FAIR" INDICATES FEW OR NO CLOUDS BELOW 12,000 FEET WITH NO
SIGNIFICANT WEATHER AND/OR OBSTRUCTIONS TO VISIBILITY.


FLZ001>010-012>015-112-114-115-200100-
PANHANDLE FLORIDA

CITY           SKY/WX    TMP DP  RH WIND       PRES   REMARKS
PENSACOLA      CLOUDY    75  51  43 N9        30.04R
PENSACOLA NAS  CLOUDY    74  52  46 N8G18     30.04R
MILTON NAS     CLOUDY    71  53  52 NE6       30.05R
CRESTVIEW      CLOUDY    67  56  67 NE10      30.07R
DUKE FIELD     CLOUDY    67  56  67 NE10G18   30.06R
VALPARAISO     MOCLDY    69  57  67 NE12      30.05R
MARY ESTHER    CLOUDY    69  52  54 NE9       30.04R
PANAMA CITY    CLOUDY    65  55  70 N7        30.03R
TYNDALL AFB    CLOUDY    65  58  78 N9        30.03R
APALACHICOLA   CLOUDY    64  55  72 N8        30.02R

STATION/POSITION SKY/WX   TEMP    WIND        PRES    WAVE   SWELL
                          AIR SEA DIR/SP/G            HT/PER HT/PER
                          (F)     (DEG/KT/KT) (MB)    (FT/S) (FT/S)
30.1N   87.6W              71 67   10/ 12/ 14 1017.1R   2/ 3
29.2N   88.2W              68 71  290/ 14/ 16 1018.0R
PANAMA CITY BEAC           65 67   20/  7/ 11 1016.8R
CAPE SAN BLAS    NOT AVBL
TOWER C                    62     360/ 13/ 15 1016.1R
28.5N   84.5W              63 69  350/ 17/ 19 1015.7R   5/ 6

$$
FLZ011-016>038-118-127-128-134-139-239-200100-
NORTH FLORIDA

CITY           SKY/WX    TMP DP  RH WIND       PRES   REMARKS
MARIANNA       CLOUDY    63  56  78 N9        30.04R
TALLAHASSEE    CLOUDY    62  54  74 N9        30.01R
PERRY          CLOUDY    59  57  94 N12G17    29.98R
CROSS CITY       N/A     61  57  87 N9        29.97R
GAINESVILLE    CLOUDY    62  60  93 NW6       29.95R
MAYPORT NAS    CLOUDY    64  61  90 N14G30    29.93R
JACKSONVILLE   CLOUDY    63  62  97 N13       29.95R FOG
JAX NAS        CLOUDY    68  61  78 N17       29.94R
JAX CRAIG      CLOUDY    66  61  84 N15G23    29.93R
JAX CECIL      CLOUDY    63  61  94 NW14      29.93R
FERNANDINA BEA CLOUDY    63  61  94 N16       29.93R
ST AUGUSTINE   CLOUDY    67  63  87 W6        29.93R

STATION/POSITION SKY/WX   TEMP    WIND        PRES    WAVE   SWELL
                          AIR SEA DIR/SP/G            HT/PER HT/PER
                          (F)     (DEG/KT/KT) (MB)    (FT/S) (FT/S)
SHELL POINT                62      10/ 11/ 17 1014.3R
KEATON BEACH               60     360/  3/  5 1015.5R
CEDAR KEY                  61     360/  4/  7 1015.1R
FERNANDINA                 63 67   30/  8/ 15 1013.0R
30.7N   81.3W                 65                N/A     6/ 5   2/11
MAYPORT                    63 67   10/ 15/ 21   N/A
31.4N   80.9W              62 64   30/ 23/ 29 1013.5R   7/ 7   2/ 9
ST AUGUSTINE               66     270/ 11/ 15 1013.6R

$$
FLZ040-043>046-052-053-057-058-063-144-200100-
INTERIOR CENTRAL FLORIDA

CITY           SKY/WX    TMP DP  RH WIND       PRES   REMARKS
OCALA          CLOUDY    63  54  72 NW3       29.96R
THE VILLAGES     N/A     64  57  77 W6        29.95S
LEESBURG       CLOUDY    65  58  78 W8        29.95S
SANFORD        CLOUDY    68  58  70 NW14      29.93R
ORLANDO EXEC   CLOUDY    68  57  68 W14       29.93R
ORLANDO INTL   MOCLDY    68  56  65 W13       29.94R
KISSIMMEE      MOCLDY    66  61  82 W10G17    29.94R
WINTER HAVEN   CLOUDY    66  56  70 NW10      29.96S
LAKELAND       CLOUDY    64  55  72 W12       29.96R
BARTOW         CLOUDY    66  55  68 W10       29.97R
OKEECHOBEE     PTCLDY    70  57  64 W8        29.94R

$$
FLZ041-047-054-059-064-141-147-200100-
EAST CENTRAL FLORIDA

CITY           SKY/WX    TMP DP  RH WIND       PRES   REMARKS
DAYTONA BEACH  PTCLDY    67  58  72 W12       29.92R
DELAND         CLOUDY    66  57  72 W9        29.94S
NEW SMYRNA BEA PTCLDY    68  57  68 W14G23    29.93R
JFK SPACE CTR  CLEAR     70  59  69 W8        29.91R
TITUSVILLE     CLEAR     70  57  64 W17       29.92R
CAPE CANAVERAL CLEAR     71  60  67 W15       29.90R
PATRICK AFB    CLEAR     71  60  67 W17       29.91R
MELBOURNE      CLEAR     70  57  63 W14       29.91R
VERO BEACH     CLEAR     73  59  61 W13       29.91R
FT PIERCE      CLEAR     72  58  61 W8        29.91R

STATION/POSITION SKY/WX   TEMP    WIND        PRES    WAVE   SWELL
                          AIR SEA DIR/SP/G            HT/PER HT/PER
                          (F)     (DEG/KT/KT) (MB)    (FT/S) (FT/S)
28.5N   80.2W              74 72  250/ 14/ 17 1012.0R
28.9N   78.5W              76 76  170/ 14/ 16 1011.5F   6/ 6   5/ 6
TRIDENT PIER               71 75  240/ 12/ 15 1012.0R
28.4N   80.5W                 73                N/A     3/10   2/11
27.6N   80.2W                 74                N/A     4/11   2/11

$$
FLZ050-056-061-142-242-148-248-149-249-151-251-155-255-
160-260-200100-
WEST CENTRAL FLORIDA

CITY           SKY/WX    TMP DP  RH WIND       PRES   REMARKS
CRYSTAL RIVER  CLOUDY    63  57  82 W3        29.96R
INVERNESS      CLOUDY    63  55  77 CALM      29.96S
BROOKSVILLE    CLOUDY    62  57  83 NW7       29.97R
CLEARWATER     CLOUDY    64  56  75 NW13      29.97R
TAMPA INTL     CLOUDY    64  55  72 NW8       29.97R
TAMPA EXEC     CLOUDY    66  55  68 NW5       29.97S
PLANT CITY     CLOUDY    66  57  72 W8        29.98R
MACDILL AFB    CLOUDY    65  59  82 VRB7      29.97R
PETER O KNIGHT CLOUDY    66  57  72 NW6       29.97R
ST PETERSBURG  CLOUDY    66  57  72 NW13      29.95R
SARASOTA       CLOUDY    66  56  70 NW12      29.97R
VENICE         FAIR      66  59  77 NW15      29.99R

STATION/POSITION SKY/WX   TEMP    WIND        PRES    WAVE   SWELL
                          AIR SEA DIR/SP/G            HT/PER HT/PER
                          (F)     (DEG/KT/KT) (MB)    (FT/S) (FT/S)
CEDAR KEY                  61     360/  4/  7 1015.1R
28.5N   84.5W              63 69  350/ 17/ 19 1015.7R   5/ 6
27.3N   84.3W                 72                N/A     7/ 7
CLEARWATER BEACH           64 71  300/ 14/ 19 1014.3R
MIDDLE TAMPA BAY           65     330/ 13/ 17 1015.0R
VENICE                     66 74  300/ 18/ 20 1014.7R

$$
FLZ066-069-070-075>078-162-262-165-265-200100-
SOUTHWEST FLORIDA AND KEYS

CITY           SKY/WX    TMP DP  RH WIND       PRES   REMARKS
PUNTA GORDA    CLOUDY    69  58  67 NW13      29.98R
FT MYERS       MOCLDY    69  58  67 NW16G23   29.96R
SOUTHWEST INTL MOCLDY    69  57  65 NW12      29.97R
NAPLES         MOCLDY    71  60  68 W9G21     29.97R
MARATHON       PTCLDY    76  67  73 NW13G22   29.96R
KEY WEST NAS   MOCLDY    75  67  76 NW18G24   29.97S
KEY WEST INTL  MOCLDY    76  68  76 NW18      29.98R

STATION/POSITION SKY/WX   TEMP    WIND        PRES    WAVE   SWELL
                          AIR SEA DIR/SP/G            HT/PER HT/PER
                          (F)     (DEG/KT/KT) (MB)    (FT/S) (FT/S)
VENICE                     66 74  300/ 18/ 20 1014.7R
NAPLES                     71 78  300/ 18/ 24 1015.1S
DRY TORTUGAS     NOT AVBL
NW FL BAY                  77     310/ 18/ 21 1014.5R
SOMBRERO KEY               76     300/ 20/ 23 1015.1R
LONG KEY                   76 82  300/ 20/ 23 1015.3R
MOLASSES REEF              76 78  300/ 19/ 22 1014.1R

$$
FLZ067-068-071>074-168-172>174-200100-
SOUTHEAST FLORIDA

CITY           SKY/WX    TMP DP  RH WIND       PRES   REMARKS
W PALM BEACH   PTCLDY    75  60  59 W17       29.91R
FT LAUDER-EXEC PTCLDY    75  62  64 W14       29.92R
FT LAUDERDALE  PTCLDY    79  63  57 W15       29.91R
POMPANO BEACH  CLEAR     77  62  59 W16       29.92R
PEMBROKE PINES PTCLDY    77  63  61 W17G23    29.93R
OPA LOCKA      PTCLDY    76  63  64 W13       29.93R
MIAMI          PTCLDY    77  63  61 W14G20    29.93R
WEST KENDALL   PTCLDY    75  64  68 W15       29.95R
HOMESTEAD      CLEAR     75  65  71 W15       29.94R

STATION/POSITION SKY/WX   TEMP    WIND        PRES    WAVE   SWELL
                          AIR SEA DIR/SP/G            HT/PER HT/PER
                          (F)     (DEG/KT/KT) (MB)    (FT/S) (FT/S)
PORT EVERGLADES            79     270/ 15/ 20 1012.7
VIRGINIA KEY               77 81  270/ 16/ 20 1013.3R
LAKE WORTH                 76 76  270/ 11/ 18 1012.5R
FOWEY ROCKS                77 79  270/ 24/ 25 1013.6R
SETTLEMENT POINT           79     200/ 22/ 23 1012.2R

$$





U.S. Dept. of Commerce
NOAA National Weather Service
1325 East West Highway
Silver Spring, MD 20910
E-mail: w-nws.webmaster@noaa.gov
Page last modified: May 16, 2007
NATIONAL WEATHER SERVICE: for Safety, for Work, for Fun - FOR LIFE